Weather History for Newburgh, NY

Change the Weather History Date:

Saturday, April 12, 2014

  Actual Average Record
Temperature  
Mean Temperature 55 °F -  
Max Temperature 69 °F 57 °F 75 °F (1987)
Min Temperature 41 °F 36 °F 20 °F (1976)
Degree Days  
Heating Degree Days 10    
Growing Degree Days 5 (Base 50)    
Moisture  
Dew Point 39 °F    
Average Humidity 62    
Maximum Humidity 100    
Minimum Humidity 24    
Precipitation  
Precipitation 0.00 in - - ()
Sea Level Pressure  
Sea Level Pressure 30.15 in    
Wind  
Wind Speed 5 mph (WNW)    
Max Wind Speed 16 mph    
Max Gust Speed 23 mph    
Visibility 14 miles    
Events      
Averages and records for this station are not official NWS values.
T = Trace of Precipitation, MM = Missing Value Source: NWS Daily Summary

Daily Weather History Graph

Daily Weather History Graph

Search for Another Location

Airport:

Trip Planner

Search our weather history database for the weather conditions in past years. The results will help you decide how hot, cold, wet, or windy it might be!

Date:

Astronomy

Apr. 12, 2014 Rise Set
Actual Time 6:21 AM EDT 7:33 PM EDT
Civil Twilight 5:52 AM EDT 8:02 PM EDT
Nautical Twilight 5:18 AM EDT 8:36 PM EDT
Astronomical Twilight 4:42 AM EDT 9:12 PM EDT
Moon 5:07 PM EDT (4/12) 4:48 AM EDT (4/12)
Length of Visible Light 14h 09m
Length of Day
13h 12m
Waxing Gibbous, 93% of the Moon is Illuminated
Apr 12
Waxing Gibbous
Apr 15
Full
Apr 22
Last Quarter
Apr 29
New
May 6
First Quarter

Hourly Weather History & Observations

Time (EDT) Temp. Windchill Dew Point Humidity Pressure Visibility Wind Dir Wind Speed Gust Speed Precip Events Conditions
12:45 AM 46.4 °F 44.3 °F 46.4 °F 100% 30.05 in 10.0 mi Variable 4.6 mph - N/A   Overcast
1:45 AM 46.4 °F 42.9 °F 46.4 °F 100% 30.06 in 10.0 mi NW 6.9 mph - N/A   Overcast
2:45 AM 46.4 °F - 46.4 °F 100% 30.06 in 10.0 mi Calm Calm - N/A   Overcast
3:45 AM 46.4 °F - 44.6 °F 93% 30.08 in 10.0 mi Calm Calm - N/A   Mostly Cloudy
4:45 AM 42.8 °F - 42.8 °F 100% 30.11 in 1.0 mi Calm Calm - N/A   Mostly Cloudy
5:45 AM 41.0 °F 38.0 °F 41.0 °F 100% 30.13 in 5.0 mi WNW 4.6 mph - N/A   Scattered Clouds
6:45 AM 41.0 °F 36.4 °F 41.0 °F 100% 30.15 in 10.0 mi West 6.9 mph - N/A   Partly Cloudy
7:45 AM 44.6 °F 39.2 °F 44.6 °F 100% 30.21 in 20.0 mi WSW 10.4 mph - N/A   Clear
10:45 AM 57.2 °F - 46.4 °F 67% 30.24 in 20.0 mi WSW 5.8 mph - N/A   Clear
11:45 AM 60.8 °F - 42.8 °F 52% 30.23 in 20.0 mi Calm Calm - N/A   Clear
12:45 PM 62.6 °F - 39.2 °F 42% 30.20 in 20.0 mi Calm Calm - N/A   Clear
1:45 PM 66.2 °F - 33.8 °F 30% 30.18 in 20.0 mi WNW 13.8 mph 23.0 mph N/A   Clear
2:45 PM 68.0 °F - 30.2 °F 24% 30.16 in 20.0 mi WNW 11.5 mph 20.7 mph N/A   Clear
3:45 PM 69.8 °F - 33.8 °F 27% 30.15 in 20.0 mi WNW 11.5 mph 20.7 mph N/A   Clear
4:45 PM 69.8 °F - 35.6 °F 28% 30.14 in 20.0 mi WNW 16.1 mph - N/A   Scattered Clouds
5:45 PM 69.8 °F - 33.8 °F 27% 30.15 in 20.0 mi WNW 11.5 mph - N/A   Partly Cloudy
6:45 PM 66.2 °F - 33.8 °F 30% 30.16 in 20.0 mi NNW 6.9 mph - N/A   Clear
7:45 PM 64.4 °F - 33.8 °F 32% 30.16 in 10.0 mi Calm Calm - N/A   Clear
8:45 PM 59.0 °F - 37.4 °F 45% 30.18 in 10.0 mi Variable 6.9 mph - N/A   Clear
9:45 PM 59.0 °F - 35.6 °F 42% 30.20 in 10.0 mi Variable 5.8 mph - N/A   Clear
11:45 PM 50.0 °F - 37.4 °F 62% 30.18 in 10.0 mi Variable 5.8 mph - N/A   Clear